N8AMF Weather Reports


time (UTC)temp
C
wind
direction
speed
KPH
gust
KPH
rain 1hr
cm
rain 24hr
cm
rain mn
cm
humidity
%
barometer
mb
20260503211650 17 215 6.4 17.7 0.00 0.00 0.00 36 1011.0
20260503211145 16 223 4.8 20.9 0.00 0.00 0.00 36 1011.1
20260503210641 17 216 6.4 11.3 0.00 0.00 0.00 35 1011.1
20260503210138 17 217 8.0 20.9 0.00 0.00 0.00 34 1011.3
20260503205634 16 219 8.0 22.5 0.00 0.00 0.00 36 1011.2
20260503205130 17 223 8.0 14.5 0.00 0.00 0.00 36 1011.2
20260503204627 16 191 6.4 17.7 0.00 0.00 0.00 36 1011.3
20260503204125 16 97 8.0 22.5 0.00 0.00 0.00 37 1011.3
20260503203621 16 225 9.7 22.5 0.00 0.00 0.00 38 1011.3
20260503203119 16 213 3.2 11.3 0.00 0.00 0.00 39 1011.2
20260503202616 16 208 6.4 14.5 0.00 0.00 0.00 38 1011.3
20260503202114 16 211 6.4 11.3 0.00 0.00 0.00 38 1011.2
20260503201612 16 218 6.4 17.7 0.00 0.00 0.00 37 1011.5
20260503201109 16 203 6.4 8.0 0.00 0.00 0.00 38 1011.5
20260503200605 16 201 3.2 11.3 0.00 0.00 0.00 38 1011.7
20260503195559 17 200 4.8 19.3 0.00 0.00 0.00 37 1011.5
20260503195056 17 222 14.5 35.4 0.00 0.00 0.00 34 1011.6
20260503194553 16 212 8.0 16.1 0.00 0.00 0.00 38 1011.7
20260503194053 17 223 6.4 17.7 0.00 0.00 0.00 37 1012.0
20260503193550 17 206 6.4 16.1 0.00 0.00 0.00 40 1012.1
20260503193045 17 204 4.8 19.3 0.00 0.00 0.00 36 1012.1
20260503192541 16 195 0.0 14.5 0.00 0.00 0.00 37 1012.2
20260503192037 16 227 8.0 14.5 0.00 0.00 0.00 37 1012.2
20260503191534 16 147 4.8 11.3 0.00 0.00 0.00 39 1012.2
20260503191031 16 212 8.0 11.3 0.00 0.00 0.00 37 1012.5
20260503190528 16 197 6.4 24.1 0.00 0.00 0.00 36 1012.4
20260503190025 17 216 8.0 17.7 0.00 0.00 0.00 37 1012.5
20260503185521 16 207 3.2 9.7 0.00 0.00 0.00 40 1012.5
20260503185020 17 201 4.8 17.7 0.00 0.00 0.00 37 1012.5
20260503184517 16 195 8.0 16.1 0.00 0.00 0.00 37 1012.6
20260503184013 16 216 0.0 16.1 0.00 0.00 0.00 39 1012.5
20260503183510 16 201 3.2 14.5 0.00 0.00 0.00 38 1012.6
20260503183007 17 224 8.0 12.9 0.00 0.00 0.00 37 1012.6
20260503182506 16 216 11.3 19.3 0.00 0.00 0.00 38 1012.7
20260503182004 16 284 4.8 12.9 0.00 0.00 0.00 37 1012.9
20260503181500 16 186 3.2 24.1 0.00 0.00 0.00 38 1012.9
20260503180956 16 224 3.2 14.5 0.00 0.00 0.00 38 1013.1
20260503180454 16 202 3.2 11.3 0.00 0.00 0.00 38 1013.1
20260503175951 16 239 1.6 20.9 0.00 0.00 0.00 39 1013.2
20260503175449 16 226 9.7 16.1 0.00 0.00 0.00 38 1013.0
20260503174944 16 133 3.2 24.1 0.00 0.00 0.00 37 1013.3
20260503174443 16 226 4.8 14.5 0.00 0.00 0.00 41 1013.3
20260503173943 16 218 6.4 11.3 0.00 0.00 0.00 38 1013.2
20260503173440 16 204 8.0 11.3 0.00 0.00 0.00 40 1013.2
20260503172937 16 179 4.8 17.7 0.00 0.00 0.00 41 1013.7
20260503172434 16 217 8.0 17.7 0.00 0.00 0.00 41 1013.6
20260503171930 16 192 3.2 30.6 0.00 0.00 0.00 40 1013.8
20260503171427 16 6 6.4 17.7 0.00 0.00 0.00 43 1013.9
20260503170925 16 234 9.7 12.9 0.00 0.00 0.00 42 1013.8
20260503170421 16 202 9.7 14.5 0.00 0.00 0.00 41 1013.8
20260503150813 13 216 8.0 19.3 0.00 0.00 0.00 41 1014.8
20260503150309 13 145 4.8 24.1 0.00 0.00 0.00 44 1014.9
20260503140234 11 149 8.0 12.9 0.00 0.00 0.00 46 1015.0
20260503131203 8 201 1.6 6.4 0.00 0.00 0.00 53 1015.6
20260503130700 8 192 4.8 9.7 0.00 0.00 0.00 54 1015.7
20260503130158 8 181 6.4 11.3 0.00 0.00 0.00 57 1015.8
20260503120123 5 165 3.2 6.4 0.00 0.00 0.00 71 1015.6
20260503110550 2 106 0.0 3.2 0.00 0.00 0.00 77 1015.6
20260503090437 2 91 1.6 4.8 0.00 0.00 0.00 78 1015.3
20260503081404 2 20 1.6 4.8 0.00 0.00 0.00 79 1015.5
20260503080901 2 72 3.2 4.8 0.00 0.00 0.00 79 1015.5
20260503080358 2 81 4.8 4.8 0.00 0.00 0.00 79 1015.4
20260503072834 2 98 0.0 4.8 0.00 0.00 0.00 81 1015.3
20260503072331 2 89 0.0 3.2 0.00 0.00 0.00 81 1015.3
20260503071827 2 180 0.0 4.8 0.00 0.00 0.00 81 1015.4
20260503071325 2 231 0.0 3.2 0.00 0.00 0.00 81 1015.4
20260503070821 2 76 1.6 4.8 0.00 0.00 0.00 81 1015.3
20260503070319 2 188 3.2 4.8 0.00 0.00 0.00 82 1015.2
20260503060244 2 49 0.0 3.2 0.00 0.00 0.00 86 1015.7
20260503054731 2 138 3.2 4.8 0.00 0.00 0.00 86 1015.7
20260503054228 3 80 1.6 3.2 0.00 0.00 0.00 86 1015.7
20260503053726 3 150 3.2 4.8 0.00 0.00 0.00 86 1015.7
20260503053225 3 103 1.6 3.2 0.00 0.00 0.00 86 1015.7
20260503052720 3 65 0.0 3.2 0.00 0.00 0.00 86 1015.7
20260503052217 3 88 0.0 4.8 0.00 0.00 0.00 86 1015.9
20260503051712 3 106 3.2 4.8 0.00 0.00 0.00 86 1015.8
20260503051210 3 91 1.6 3.2 0.00 0.00 0.00 85 1015.9
20260503050707 3 89 0.0 3.2 0.00 0.00 0.00 85 1015.8
20260503050203 3 111 1.6 4.8 0.00 0.00 0.00 84 1015.7
20260503045701 3 89 0.0 4.8 0.00 0.00 0.00 84 1015.7
20260503045158 3 112 3.2 4.8 0.00 0.00 0.00 82 1015.8
20260503044654 3 80 1.6 3.2 0.00 0.00 0.00 81 1015.8
20260503044152 3 182 1.6 4.8 0.00 0.00 0.00 80 1015.9
20260503043648 3 109 3.2 3.2 0.00 0.00 0.00 80 1015.7
20260503043146 3 102 1.6 4.8 0.00 0.00 0.00 80 1015.7
20260503042642 3 63 1.6 3.2 0.00 0.00 0.00 79 1015.9
20260503042138 3 112 3.2 6.4 0.00 0.00 0.00 79 1015.9
20260503041635 4 97 4.8 4.8 0.00 0.00 0.00 79 1015.7
20260503041133 4 115 0.0 3.2 0.00 0.00 0.00 79 1015.8
20260503040630 4 101 1.6 4.8 0.00 0.00 0.00 78 1016.1
20260503040127 4 148 1.6 4.8 0.00 0.00 0.00 78 1016.2
20260503035623 4 86 0.0 3.2 0.00 0.41 0.41 78 1016.1
20260503035121 5 44 0.0 3.2 0.00 0.41 0.41 78 1016.0
20260503034618 5 102 0.0 3.2 0.00 0.41 0.41 77 1015.9
20260503034116 5 60 0.0 3.2 0.00 0.41 0.41 77 1015.8
20260503033613 5 155 0.0 3.2 0.00 0.41 0.41 76 1016.2
20260503033110 5 190 0.0 3.2 0.00 0.41 0.41 76 1016.2
20260503032608 5 76 0.0 3.2 0.00 0.41 0.41 76 1016.2
20260503032107 5 160 0.0 3.2 0.00 0.41 0.41 76 1016.2
20260503031604 5 69 0.0 4.8 0.00 0.41 0.41 76 1016.1
20260503031101 5 183 1.6 3.2 0.00 0.41 0.41 76 1016.1
20260503030557 5 147 0.0 4.8 0.00 0.41 0.41 76 1015.9
20260503030054 5 122 0.0 3.2 0.00 0.41 0.41 76 1016.3
20260503025551 5 187 1.6 3.2 0.00 0.41 0.41 76 1016.2
20260503025049 5 163 0.0 8.0 0.00 0.41 0.41 76 1016.4
20260503024544 5 168 1.6 4.8 0.00 0.41 0.41 76 1016.2
20260503024042 5 151 3.2 6.4 0.00 0.41 0.41 75 1016.2
20260503023538 5 171 3.2 3.2 0.00 0.41 0.41 75 1016.4
20260503023036 5 180 0.0 4.8 0.00 0.41 0.41 74 1016.3
20260503022532 5 145 1.6 6.4 0.00 0.41 0.41 74 1016.5
20260503022027 5 177 1.6 3.2 0.00 0.41 0.41 74 1016.3
20260503021524 6 191 0.0 4.8 0.00 0.41 0.41 73 1016.4
20260503021021 6 188 0.0 3.2 0.00 0.41 0.41 73 1016.4
20260503020518 6 135 0.0 3.2 0.00 0.41 0.41 72 1016.3
20260503020015 6 136 1.6 3.2 0.00 0.41 0.41 72 1016.4
20260503015511 6 120 0.0 4.8 0.00 0.41 0.41 72 1016.3
20260503015008 6 134 3.2 4.8 0.00 0.41 0.41 72 1016.4
20260503014504 6 74 0.0 3.2 0.00 0.41 0.41 71 1016.4
20260503014003 6 124 0.0 3.2 0.00 0.41 0.41 71 1016.2
20260503013459 6 122 4.8 8.0 0.00 0.41 0.41 72 1016.2
20260503012956 6 151 0.0 3.2 0.00 0.41 0.41 71 1016.3
20260503012455 6 49 1.6 3.2 0.00 0.41 0.41 70 1016.2
20260503011950 6 124 0.0 3.2 0.00 0.41 0.41 69 1016.1
20260503011447 6 89 1.6 3.2 0.00 0.41 0.41 68 1016.0
20260503010944 6 163 0.0 3.2 0.00 0.41 0.41 68 1016.2
20260503010441 6 172 0.0 3.2 0.00 0.41 0.41 66 1016.1
20260503005938 6 154 0.0 3.2 0.00 0.41 0.41 67 1016.2
20260503005436 6 169 3.2 3.2 0.00 0.41 0.41 68 1016.1
20260503004932 6 127 0.0 3.2 0.00 0.41 0.41 68 1016.0
20260503004429 6 110 0.0 3.2 0.00 0.41 0.41 67 1016.1
20260503003927 6 124 0.0 3.2 0.00 0.41 0.41 66 1016.0
20260503003423 6 135 0.0 3.2 0.00 0.41 0.41 62 1015.9
20260503002921 6 180 0.0 4.8 0.00 0.41 0.41 56 1015.9
20260503002418 7 215 3.2 6.4 0.00 0.41 0.41 55 1015.9
20260503001914 6 5 3.2 6.4 0.00 0.41 0.41 57 1016.0
20260503001410 6 92 1.6 4.8 0.00 0.41 0.41 61 1015.9
20260503000908 7 141 0.0 3.2 0.00 0.41 0.41 60 1016.0
20260503000407 7 214 3.2 6.4 0.00 0.41 0.41 57 1015.8
20260502235902 7 176 1.6 6.4 0.00 0.41 0.41 57 1015.8
20260502235359 7 228 3.2 4.8 0.00 0.41 0.41 56 1015.9
20260502234856 7 223 6.4 8.0 0.00 0.41 0.41 57 1015.8
20260502234353 7 332 4.8 6.4 0.00 0.41 0.41 57 1015.8
20260502233849 7 214 4.8 6.4 0.00 0.41 0.41 56 1015.7
20260502233345 7 181 3.2 6.4 0.00 0.41 0.41 55 1015.8
20260502232843 7 84 0.0 3.2 0.00 0.41 0.41 56 1015.7
20260502232339 7 72 0.0 8.0 0.00 0.41 0.41 55 1015.9
20260502231835 7 337 3.2 9.7 0.00 0.41 0.41 58 1015.8
20260502231334 7 143 0.0 14.5 0.00 0.41 0.41 54 1016.0
20260502230831 7 63 0.0 6.4 0.00 0.41 0.41 56 1015.8
20260502230329 7 30 4.8 9.7 0.00 0.41 0.41 57 1016.0
20260502225826 7 341 3.2 6.4 0.00 0.41 0.41 54 1016.0
20260502225322 7 217 3.2 8.0 0.00 0.41 0.41 54 1016.0
20260502224819 7 326 3.2 9.7 0.00 0.41 0.41 55 1016.0
20260502224315 7 211 4.8 6.4 0.00 0.41 0.41 54 1015.9
20260502223814 7 209 1.6 12.9 0.00 0.41 0.41 54 1015.9
20260502223311 7 232 4.8 6.4 0.00 0.41 0.41 55 1016.0
20260502222809 7 193 1.6 8.0 0.00 0.41 0.41 53 1016.1
20260502222306 7 202 6.4 11.3 0.00 0.41 0.41 52 1016.0
20260502221801 8 340 4.8 14.5 0.00 0.41 0.41 53 1016.0
20260502221258 8 201 9.7 14.5 0.00 0.41 0.41 48 1016.3
20260502220755 8 18 3.2 11.3 0.00 0.41 0.41 55 1016.1
20260502220251 8 246 8.0 14.5 0.00 0.41 0.41 49 1016.3
20260502215747 8 344 4.8 12.9 0.00 0.41 0.41 52 1016.2
20260502215245 8 41 8.0 14.5 0.00 0.41 0.41 52 1016.2
20260502214742 8 61 6.4 12.9 0.00 0.41 0.41 57 1016.1
20260502214239 8 52 3.2 9.7 0.00 0.41 0.41 52 1016.1
20260502213736 8 20 9.7 12.9 0.00 0.41 0.41 53 1016.1
20260502213233 7 48 3.2 8.0 0.00 0.41 0.41 56 1016.1
20260502212732 8 12 4.8 8.0 0.00 0.41 0.41 55 1016.4
20260502212230 8 345 8.0 17.7 0.00 0.41 0.41 54 1016.1